Time,TemperatureF,DewpointF,PressureIn,WindDirection,WindDirectionDegrees,WindSpeedMPH,WindSpeedGustMPH,Humidity,HourlyPrecipIn,Conditions,Clouds,dailyrainin,SoftwareType,DateUTC
2013-03-26 00:00:00,37.2,20.3,0.00,NNW,333,0.0,0.0,50,0.00,,---,0.04,VWS V13.01,2013-03-26 04:00:00,
2013-03-26 00:01:00,37.2,20.3,0.00,NNW,333,0.0,0.0,50,0.00,,---,0.00,VWS V13.01,2013-03-26 04:01:00,
2013-03-26 00:06:00,37.4,20.0,0.00,NW,307,0.0,6.3,49,0.00,,---,0.00,VWS V13.01,2013-03-26 04:06:00,
2013-03-26 00:11:00,37.4,19.5,0.00,WNW,297,0.0,6.3,48,0.00,,---,0.00,VWS V13.01,2013-03-26 04:11:00,
2013-03-26 00:16:00,37.6,19.2,0.00,WNW,297,0.0,6.3,47,0.00,,---,0.00,VWS V13.01,2013-03-26 04:16:00,
2013-03-26 00:22:00,37.6,19.2,0.00,NNW,331,0.0,0.0,47,0.00,,---,0.00,VWS V13.01,2013-03-26 04:22:00,
2013-03-26 00:27:00,37.6,19.2,0.00,West,268,0.0,0.0,47,0.00,,---,0.00,VWS V13.01,2013-03-26 04:27:00,
2013-03-26 00:32:00,37.6,18.7,0.00,NW,323,0.0,5.8,46,0.00,,---,0.00,VWS V13.01,2013-03-26 04:32:00,
2013-03-26 00:37:00,37.6,19.2,0.00,WNW,292,0.0,5.8,47,0.00,,---,0.00,VWS V13.01,2013-03-26 04:37:00,
2013-03-26 00:42:00,37.6,19.2,0.00,WNW,287,0.0,0.0,47,0.00,,---,0.00,VWS V13.01,2013-03-26 04:42:00,
2013-03-26 00:47:00,37.6,19.2,0.00,West,278,0.0,0.0,47,0.00,,---,0.00,VWS V13.01,2013-03-26 04:47:00,
2013-03-26 00:52:00,37.6,18.7,0.00,NW,313,0.0,0.0,46,0.00,,---,0.00,VWS V13.01,2013-03-26 04:52:00,
2013-03-26 00:57:00,37.6,18.7,0.00,NNW,330,0.0,0.0,46,0.00,,---,0.00,VWS V13.01,2013-03-26 04:57:00,
2013-03-26 01:02:00,37.4,18.5,0.00,NW,312,0.0,0.0,46,0.00,,---,0.00,VWS V13.01,2013-03-26 05:02:00,
2013-03-26 01:07:00,37.4,18.5,0.00,NNW,329,0.0,0.0,46,0.00,,---,0.00,VWS V13.01,2013-03-26 05:07:00,
2013-03-26 01:12:00,37.4,18.5,0.00,NW,319,0.0,0.0,46,0.00,,---,0.00,VWS V13.01,2013-03-26 05:12:00,
2013-03-26 01:17:00,37.2,18.4,0.00,NNW,327,0.0,0.0,46,0.00,,---,0.00,VWS V13.01,2013-03-26 05:17:00,
2013-03-26 01:22:00,37.0,18.7,0.00,NW,323,0.0,0.0,47,0.00,,---,0.00,VWS V13.01,2013-03-26 05:22:00,
2013-03-26 01:28:00,37.0,18.7,0.00,NW,317,0.0,0.0,47,0.00,,---,0.00,VWS V13.01,2013-03-26 05:28:00,
2013-03-26 01:33:00,37.0,18.7,0.00,NW,304,0.0,0.0,47,0.00,,---,0.00,VWS V13.01,2013-03-26 05:33:00,
2013-03-26 01:38:00,37.0,18.7,0.00,NW,323,0.0,0.0,47,0.00,,---,0.00,VWS V13.01,2013-03-26 05:38:00,
2013-03-26 01:43:00,36.9,19.0,0.00,West,264,0.0,0.0,48,0.00,,---,0.00,VWS V13.01,2013-03-26 05:43:00,
2013-03-26 01:48:00,36.7,19.8,0.00,SW,227,0.0,0.0,50,0.00,,---,0.00,VWS V13.01,2013-03-26 05:48:00,
2013-03-26 01:53:00,36.3,19.5,0.00,NW,321,0.0,0.0,50,0.00,,---,0.00,VWS V13.01,2013-03-26 05:53:00,
2013-03-26 01:58:00,36.1,19.3,0.00,NW,321,0.0,0.0,50,0.00,,---,0.00,VWS V13.01,2013-03-26 05:58:00,
2013-03-26 02:03:00,35.8,19.4,0.00,NW,321,0.0,0.0,51,0.00,,---,0.00,VWS V13.01,2013-03-26 06:03:00,
2013-03-26 02:08:00,35.6,19.3,0.00,NW,321,0.0,0.0,51,0.00,,---,0.00,VWS V13.01,2013-03-26 06:08:00,
2013-03-26 02:13:00,35.4,19.6,0.00,NW,307,0.0,0.0,52,0.00,,---,0.00,VWS V13.01,2013-03-26 06:13:00,
2013-03-26 02:18:00,35.2,19.4,0.00,NW,307,0.0,0.0,52,0.00,,---,0.00,VWS V13.01,2013-03-26 06:18:00,
2013-03-26 02:23:00,35.1,19.7,0.00,NW,307,0.0,0.0,53,0.00,,---,0.00,VWS V13.01,2013-03-26 06:23:00,
2013-03-26 02:28:00,34.9,19.5,0.00,NW,307,0.0,0.0,53,0.00,,---,0.00,VWS V13.01,2013-03-26 06:28:00,
2013-03-26 02:33:00,34.7,19.3,0.00,NW,307,0.0,0.0,53,0.00,,---,0.00,VWS V13.01,2013-03-26 06:33:00,
2013-03-26 02:38:00,34.5,19.6,0.00,NW,305,0.0,0.0,54,0.00,,---,0.00,VWS V13.01,2013-03-26 06:38:00,
2013-03-26 02:43:00,34.3,19.9,0.00,NW,305,0.0,0.0,55,0.00,,---,0.00,VWS V13.01,2013-03-26 06:43:00,
2013-03-26 02:49:00,34.3,19.9,0.00,NW,305,0.0,0.0,55,0.00,,---,0.00,VWS V13.01,2013-03-26 06:49:00,
2013-03-26 02:54:00,34.2,20.1,0.00,NW,305,0.0,0.0,56,0.00,,---,0.00,VWS V13.01,2013-03-26 06:54:00,
2013-03-26 02:59:00,34.0,20.4,0.00,NW,305,0.0,0.0,57,0.00,,---,0.00,VWS V13.01,2013-03-26 06:59:00,
2013-03-26 03:04:00,34.0,20.8,0.00,NW,305,0.0,0.0,58,0.00,,---,0.00,VWS V13.01,2013-03-26 07:04:00,
2013-03-26 03:09:00,33.8,21.0,0.00,NW,305,0.0,0.0,59,0.00,,---,0.00,VWS V13.01,2013-03-26 07:09:00,
2013-03-26 03:14:00,33.6,20.8,0.00,NW,305,0.0,0.0,59,0.00,,---,0.00,VWS V13.01,2013-03-26 07:14:00,
2013-03-26 03:19:00,33.6,20.8,0.00,NW,305,0.0,0.0,59,0.00,,---,0.00,VWS V13.01,2013-03-26 07:19:00,
2013-03-26 03:24:00,33.3,20.5,0.00,NW,305,0.0,0.0,59,0.00,,---,0.00,VWS V13.01,2013-03-26 07:24:00,
2013-03-26 03:29:00,33.1,20.7,0.00,North,5,0.0,0.0,60,0.00,,---,0.00,VWS V13.01,2013-03-26 07:29:00,
2013-03-26 03:34:00,32.9,20.5,0.00,North,5,0.0,0.0,60,0.00,,---,0.00,VWS V13.01,2013-03-26 07:34:00,
2013-03-26 03:39:00,32.7,20.4,0.00,North,5,0.0,0.0,60,0.00,,---,0.00,VWS V13.01,2013-03-26 07:39:00,
2013-03-26 03:44:00,32.7,20.8,0.00,North,5,0.0,0.0,61,0.00,,---,0.00,VWS V13.01,2013-03-26 07:44:00,
2013-03-26 03:49:00,32.5,20.6,0.00,North,5,0.0,0.0,61,0.00,,---,0.00,VWS V13.01,2013-03-26 07:49:00,
2013-03-26 03:55:00,32.5,20.6,0.00,North,5,0.0,0.0,61,0.00,,---,0.00,VWS V13.01,2013-03-26 07:55:00,
2013-03-26 04:00:00,32.4,20.8,0.00,North,5,0.0,0.0,62,0.00,,---,0.00,VWS V13.01,2013-03-26 08:00:00,
2013-03-26 04:05:00,32.2,20.6,0.00,North,5,0.0,0.0,62,0.00,,---,0.00,VWS V13.01,2013-03-26 08:05:00,
2013-03-26 04:10:00,32.0,20.5,0.00,North,5,0.0,0.0,62,0.00,,---,0.00,VWS V13.01,2013-03-26 08:10:00,
2013-03-26 04:15:00,32.0,20.9,0.00,North,5,0.0,0.0,63,0.00,,---,0.00,VWS V13.01,2013-03-26 08:15:00,
2013-03-26 04:20:00,31.8,21.0,0.00,North,5,0.0,0.0,64,0.00,,---,0.00,VWS V13.01,2013-03-26 08:20:00,
2013-03-26 04:25:00,31.6,20.9,0.00,North,5,0.0,0.0,64,0.00,,---,0.00,VWS V13.01,2013-03-26 08:25:00,
2013-03-26 04:30:00,31.8,21.4,0.00,North,5,0.0,0.0,65,0.00,,---,0.00,VWS V13.01,2013-03-26 08:30:00,
2013-03-26 04:35:00,31.8,21.8,0.00,North,5,0.0,0.0,66,0.00,,---,0.00,VWS V13.01,2013-03-26 08:35:00,
2013-03-26 04:40:00,32.0,21.9,0.00,North,5,0.0,0.0,66,0.00,,---,0.00,VWS V13.01,2013-03-26 08:40:00,
2013-03-26 04:45:00,32.0,22.3,0.00,North,5,0.0,0.0,67,0.00,,---,0.00,VWS V13.01,2013-03-26 08:45:00,
2013-03-26 04:50:00,32.0,22.3,0.00,North,5,0.0,0.0,67,0.00,,---,0.00,VWS V13.01,2013-03-26 08:50:00,
2013-03-26 04:56:00,32.0,22.3,0.00,North,5,0.0,0.0,67,0.00,,---,0.00,VWS V13.01,2013-03-26 08:56:00,
2013-03-26 05:01:00,32.0,22.3,0.00,North,5,0.0,0.0,67,0.00,,---,0.00,VWS V13.01,2013-03-26 09:01:00,
2013-03-26 05:06:00,32.0,22.6,0.00,North,5,0.0,0.0,68,0.00,,---,0.00,VWS V13.01,2013-03-26 09:06:00,
2013-03-26 05:11:00,32.2,22.8,0.00,North,5,0.0,0.0,68,0.00,,---,0.00,VWS V13.01,2013-03-26 09:11:00,
2013-03-26 05:16:00,32.2,23.2,0.00,North,5,0.0,0.0,69,0.00,,---,0.00,VWS V13.01,2013-03-26 09:16:00,
2013-03-26 05:21:00,32.2,23.2,0.00,North,5,0.0,0.0,69,0.00,,---,0.00,VWS V13.01,2013-03-26 09:21:00,
2013-03-26 05:26:00,32.4,23.3,0.00,North,5,0.0,0.0,69,0.00,,---,0.00,VWS V13.01,2013-03-26 09:26:00,
2013-03-26 05:31:00,32.4,23.3,0.00,North,5,0.0,0.0,69,0.00,,---,0.00,VWS V13.01,2013-03-26 09:31:00,
2013-03-26 05:36:00,32.4,23.3,0.00,North,5,0.0,0.0,69,0.00,,---,0.00,VWS V13.01,2013-03-26 09:36:00,
2013-03-26 05:41:00,32.4,23.3,0.00,North,5,0.0,0.0,69,0.00,,---,0.00,VWS V13.01,2013-03-26 09:41:00,
2013-03-26 05:47:00,32.4,23.3,0.00,North,5,0.0,0.0,69,0.00,,---,0.00,VWS V13.01,2013-03-26 09:47:00,
2013-03-26 05:52:00,32.5,23.9,0.00,North,5,0.0,0.0,70,0.00,,---,0.00,VWS V13.01,2013-03-26 09:52:00,
2013-03-26 05:57:00,32.5,23.9,0.00,North,5,0.0,0.0,70,0.00,,---,0.00,VWS V13.01,2013-03-26 09:57:00,
2013-03-26 06:02:00,32.5,23.9,0.00,North,5,0.0,0.0,70,0.00,,---,0.00,VWS V13.01,2013-03-26 10:02:00,
2013-03-26 06:07:00,32.5,23.9,0.00,North,5,0.0,0.0,70,0.00,,---,0.00,VWS V13.01,2013-03-26 10:07:00,
2013-03-26 06:12:00,32.5,23.9,0.00,North,5,0.0,0.0,70,0.00,,---,0.00,VWS V13.01,2013-03-26 10:12:00,
2013-03-26 06:17:00,32.5,23.9,0.00,North,5,0.0,0.0,70,0.00,,---,0.00,VWS V13.01,2013-03-26 10:17:00,
2013-03-26 06:22:00,32.5,23.5,0.00,North,5,0.0,0.0,69,0.00,,---,0.00,VWS V13.01,2013-03-26 10:22:00,
2013-03-26 06:27:00,32.5,23.5,0.00,North,5,0.0,0.0,69,0.00,,---,0.00,VWS V13.01,2013-03-26 10:27:00,
2013-03-26 06:32:00,32.5,23.5,0.00,North,5,0.0,0.0,69,0.00,,---,0.00,VWS V13.01,2013-03-26 10:32:00,
2013-03-26 06:37:00,32.4,23.3,0.00,North,5,0.0,0.0,69,0.00,,---,0.00,VWS V13.01,2013-03-26 10:37:00,
2013-03-26 06:42:00,32.4,23.3,0.00,North,5,0.0,0.0,69,0.00,,---,0.00,VWS V13.01,2013-03-26 10:42:00,
2013-03-26 06:47:00,32.4,23.3,0.00,North,5,0.0,0.0,69,0.00,,---,0.00,VWS V13.01,2013-03-26 10:47:00,
2013-03-26 06:52:00,32.2,23.2,0.00,North,5,0.0,0.0,69,0.00,,---,0.00,VWS V13.01,2013-03-26 10:52:00,
2013-03-26 06:57:00,32.0,23.0,0.00,North,5,0.0,0.0,69,0.00,,---,0.00,VWS V13.01,2013-03-26 10:57:00,
2013-03-26 07:02:00,31.8,22.8,0.00,North,5,0.0,0.0,69,0.00,,---,0.00,VWS V13.01,2013-03-26 11:02:00,
2013-03-26 07:07:00,31.6,22.6,0.00,North,5,0.0,0.0,69,0.00,,---,0.00,VWS V13.01,2013-03-26 11:07:00,
2013-03-26 07:13:00,31.6,23.0,0.00,North,5,0.0,0.0,70,0.00,,---,0.00,VWS V13.01,2013-03-26 11:13:00,
2013-03-26 07:18:00,31.6,23.0,0.00,North,5,0.0,0.0,70,0.00,,---,0.00,VWS V13.01,2013-03-26 11:18:00,
2013-03-26 07:23:00,31.6,23.0,0.00,North,5,0.0,0.0,70,0.00,,---,0.00,VWS V13.01,2013-03-26 11:23:00,
2013-03-26 07:28:00,31.6,23.0,0.00,North,5,0.0,0.0,70,0.00,,---,0.00,VWS V13.01,2013-03-26 11:28:00,
2013-03-26 07:33:00,31.6,23.0,0.00,North,5,0.0,0.0,70,0.00,,---,0.00,VWS V13.01,2013-03-26 11:33:00,
2013-03-26 07:38:00,31.5,23.2,0.00,North,5,0.0,0.0,71,0.00,,---,0.00,VWS V13.01,2013-03-26 11:38:00,
2013-03-26 07:43:00,31.3,22.6,0.00,North,5,0.0,0.0,70,0.00,,---,0.00,VWS V13.01,2013-03-26 11:43:00,
2013-03-26 07:48:00,31.3,22.6,0.00,North,5,0.0,0.0,70,0.00,,---,0.00,VWS V13.01,2013-03-26 11:48:00,
2013-03-26 07:53:00,31.3,23.0,0.00,North,5,0.0,0.0,71,0.00,,---,0.00,VWS V13.01,2013-03-26 11:53:00,
2013-03-26 07:58:00,31.3,23.0,0.00,North,5,0.0,0.0,71,0.00,,---,0.00,VWS V13.01,2013-03-26 11:58:00,
2013-03-26 08:03:00,31.5,23.5,0.00,North,5,0.0,0.0,72,0.00,,---,0.00,VWS V13.01,2013-03-26 12:03:00,
2013-03-26 08:08:00,31.6,23.7,0.00,North,5,0.0,0.0,72,0.00,,---,0.00,VWS V13.01,2013-03-26 12:08:00,
2013-03-26 08:14:00,31.6,24.0,0.00,North,5,0.0,0.0,73,0.00,,---,0.00,VWS V13.01,2013-03-26 12:14:00,
2013-03-26 08:19:00,32.0,24.3,0.00,North,5,0.0,0.0,73,0.00,,---,0.00,VWS V13.01,2013-03-26 12:19:00,
2013-03-26 08:24:00,32.2,24.5,0.00,North,5,0.0,0.0,73,0.00,,---,0.00,VWS V13.01,2013-03-26 12:24:00,
2013-03-26 08:29:00,32.5,24.9,0.00,North,5,0.0,0.0,73,0.00,,---,0.00,VWS V13.01,2013-03-26 12:29:00,
2013-03-26 08:34:00,32.9,25.5,0.00,North,5,0.0,0.0,74,0.00,,---,0.00,VWS V13.01,2013-03-26 12:34:00,
2013-03-26 08:39:00,33.4,26.1,0.00,North,5,0.0,0.0,74,0.00,,---,0.00,VWS V13.01,2013-03-26 12:39:00,
2013-03-26 08:44:00,34.0,26.9,0.00,WSW,237,0.0,0.0,75,0.00,,---,0.00,VWS V13.01,2013-03-26 12:44:00,
2013-03-26 08:49:00,34.7,27.6,0.00,WSW,240,0.0,0.0,75,0.00,,---,0.00,VWS V13.01,2013-03-26 12:49:00,
2013-03-26 08:54:00,35.2,28.1,0.00,South,189,0.0,0.0,75,0.00,,---,0.00,VWS V13.01,2013-03-26 12:54:00,
2013-03-26 08:59:00,36.0,28.5,0.00,SSW,200,0.0,0.0,74,0.00,,---,0.00,VWS V13.01,2013-03-26 12:59:00,
2013-03-26 09:04:00,36.9,29.0,0.00,WNW,287,0.0,0.0,73,0.00,,---,0.00,VWS V13.01,2013-03-26 13:04:00,
2013-03-26 09:09:00,37.6,28.7,0.00,WNW,291,0.0,0.0,70,0.00,,---,0.00,VWS V13.01,2013-03-26 13:09:00,
2013-03-26 09:14:00,38.5,27.8,0.00,WSW,241,0.0,0.0,65,0.00,,---,0.00,VWS V13.01,2013-03-26 13:14:00,
2013-03-26 09:19:00,39.2,25.3,0.00,NNW,330,2.2,4.0,57,0.00,,---,0.00,VWS V13.01,2013-03-26 13:19:00,
2013-03-26 09:24:00,40.1,24.4,0.00,WNW,283,4.0,4.0,53,0.00,,---,0.00,VWS V13.01,2013-03-26 13:24:00,
2013-03-26 09:29:00,40.8,23.1,0.00,NNW,337,3.6,8.1,49,0.00,,---,0.00,VWS V13.01,2013-03-26 13:29:00,
2013-03-26 09:34:00,41.5,22.8,0.00,NNW,339,3.1,8.1,47,0.00,,---,0.00,VWS V13.01,2013-03-26 13:34:00,
2013-03-26 09:40:00,42.1,21.2,0.00,NNW,346,5.4,8.1,43,0.00,,---,0.00,VWS V13.01,2013-03-26 13:40:00,
2013-03-26 09:45:00,42.4,21.0,0.00,NNW,337,5.8,6.3,42,0.00,,---,0.00,VWS V13.01,2013-03-26 13:45:00,
2013-03-26 09:50:00,42.6,20.6,0.00,NNW,344,6.3,8.7,41,0.00,,---,0.00,VWS V13.01,2013-03-26 13:50:00,
2013-03-26 09:55:00,42.8,20.8,0.00,NW,325,5.8,10.5,41,0.00,,---,0.00,VWS V13.01,2013-03-26 13:55:00,
2013-03-26 10:00:00,43.3,20.6,0.00,NNW,330,4.0,4.0,40,0.00,,---,0.00,VWS V13.01,2013-03-26 14:00:00,
2013-03-26 10:05:00,43.3,20.6,0.00,NNW,337,5.4,6.3,40,0.00,,---,0.00,VWS V13.01,2013-03-26 14:05:00,
2013-03-26 10:10:00,43.5,20.8,0.00,NNE,13,3.1,8.7,40,0.00,,---,0.00,VWS V13.01,2013-03-26 14:10:00,
2013-03-26 10:15:00,44.1,21.3,0.00,North,357,2.2,8.7,40,0.00,,---,0.00,VWS V13.01,2013-03-26 14:15:00,
2013-03-26 10:20:00,44.1,20.7,0.00,NNE,15,5.8,8.3,39,0.00,,---,0.00,VWS V13.01,2013-03-26 14:20:00,
2013-03-26 10:25:00,44.1,20.7,0.00,North,357,3.1,9.2,39,0.00,,---,0.00,VWS V13.01,2013-03-26 14:25:00,
2013-03-26 10:30:00,44.6,20.6,0.00,NNW,342,6.3,10.1,38,0.00,,---,0.00,VWS V13.01,2013-03-26 14:30:00,
2013-03-26 10:35:00,45.1,21.7,0.00,North,3,4.0,10.1,39,0.00,,---,0.00,VWS V13.01,2013-03-26 14:35:00,
2013-03-26 10:40:00,45.5,21.4,0.00,WNW,298,2.7,2.7,38,0.00,,---,0.00,VWS V13.01,2013-03-26 14:40:00,
2013-03-26 10:45:00,46.0,21.9,0.00,NNW,339,5.8,8.3,38,0.00,,---,0.00,VWS V13.01,2013-03-26 14:45:00,
2013-03-26 10:50:00,45.7,21.5,0.00,NNW,332,4.9,8.7,38,0.00,,---,0.00,VWS V13.01,2013-03-26 14:50:00,
2013-03-26 10:55:00,45.5,21.4,0.00,NNW,339,4.0,8.7,38,0.00,,---,0.00,VWS V13.01,2013-03-26 14:55:00,
2013-03-26 11:00:00,45.5,21.4,0.00,North,353,4.0,4.0,38,0.00,,---,0.00,VWS V13.01,2013-03-26 15:00:00,
2013-03-26 11:05:00,45.9,21.1,0.00,North,357,3.6,6.3,37,0.00,,---,0.00,VWS V13.01,2013-03-26 15:05:00,
2013-03-26 11:11:00,46.0,21.2,0.00,North,0,2.7,6.3,37,0.00,,---,0.00,VWS V13.01,2013-03-26 15:11:00,
2013-03-26 11:16:00,45.9,21.1,0.00,NNE,16,4.0,10.5,37,0.00,,---,0.00,VWS V13.01,2013-03-26 15:16:00,
2013-03-26 11:21:00,46.0,21.2,0.00,NNW,342,6.3,6.3,37,0.00,,---,0.00,VWS V13.01,2013-03-26 15:21:00,
2013-03-26 11:26:00,46.0,21.2,0.00,North,1,3.6,9.2,37,0.00,,---,0.00,VWS V13.01,2013-03-26 15:26:00,
2013-03-26 11:31:00,45.9,21.1,0.00,NNW,345,3.6,10.5,37,0.00,,---,0.00,VWS V13.01,2013-03-26 15:31:00,
2013-03-26 11:37:00,46.0,21.2,0.00,NNE,20,3.1,10.5,37,0.00,,---,0.00,VWS V13.01,2013-03-26 15:37:00,
2013-03-26 11:42:00,46.0,21.2,0.00,NNW,344,5.8,6.3,37,0.00,,---,0.00,VWS V13.01,2013-03-26 15:42:00,
2013-03-26 11:47:00,45.7,20.9,0.00,NW,316,5.8,7.6,37,0.00,,---,0.00,VWS V13.01,2013-03-26 15:47:00,
2013-03-26 11:52:00,45.5,20.8,0.00,WNW,300,5.8,8.1,37,0.00,,---,0.00,VWS V13.01,2013-03-26 15:52:00,
2013-03-26 11:57:00,45.3,20.6,0.00,NW,317,4.0,8.1,37,0.00,,---,0.00,VWS V13.01,2013-03-26 15:57:00,
2013-03-26 12:02:00,45.3,21.2,0.00,North,357,3.1,8.1,38,0.00,,---,0.00,VWS V13.01,2013-03-26 16:02:00,
2013-03-26 12:07:00,45.3,21.2,0.00,NNE,20,3.1,8.1,38,0.00,,---,0.00,VWS V13.01,2013-03-26 16:07:00,
2013-03-26 12:12:00,45.1,20.4,0.00,NNW,340,0.0,8.1,37,0.00,,---,0.00,VWS V13.01,2013-03-26 16:12:00,
2013-03-26 12:17:00,45.1,21.1,0.00,North,353,3.1,8.1,38,0.00,,---,0.00,VWS V13.01,2013-03-26 16:17:00,
2013-03-26 12:22:00,45.1,21.1,0.00,NNW,335,3.6,8.3,38,0.00,,---,0.00,VWS V13.01,2013-03-26 16:22:00,
2013-03-26 12:27:00,45.1,20.4,0.00,NW,326,5.4,10.1,37,0.00,,---,0.00,VWS V13.01,2013-03-26 16:27:00,
2013-03-26 12:32:00,45.1,20.4,0.00,NNE,18,3.1,10.1,37,0.00,,---,0.00,VWS V13.01,2013-03-26 16:32:00,
2013-03-26 12:37:00,45.3,20.6,0.00,North,10,5.4,10.1,37,0.00,,---,0.00,VWS V13.01,2013-03-26 16:37:00,
2013-03-26 12:42:00,45.5,20.8,0.00,North,4,2.2,7.6,37,0.00,,---,0.00,VWS V13.01,2013-03-26 16:42:00,
2013-03-26 12:48:00,45.9,21.1,0.00,NE,40,4.0,7.6,37,0.00,,---,0.00,VWS V13.01,2013-03-26 16:48:00,
2013-03-26 12:53:00,46.0,21.2,0.00,North,357,0.0,7.6,37,0.00,,---,0.00,VWS V13.01,2013-03-26 16:53:00,
2013-03-26 12:58:00,46.6,21.7,0.00,WSW,240,2.2,8.7,37,0.00,,---,0.00,VWS V13.01,2013-03-26 16:58:00,
2013-03-26 13:03:00,46.8,21.2,0.00,NNW,328,4.0,5.8,36,0.00,,---,0.00,VWS V13.01,2013-03-26 17:03:00,
2013-03-26 13:08:00,46.8,20.6,0.00,NNW,329,4.0,12.8,35,0.00,,---,0.00,VWS V13.01,2013-03-26 17:08:00,
2013-03-26 13:13:00,46.6,19.7,0.00,NNE,23,2.7,12.8,34,0.00,,---,0.00,VWS V13.01,2013-03-26 17:13:00,
2013-03-26 13:18:00,46.2,19.4,0.00,NNW,348,3.1,12.8,34,0.00,,---,0.00,VWS V13.01,2013-03-26 17:18:00,
2013-03-26 13:23:00,46.2,20.1,0.00,North,353,8.7,8.7,35,0.00,,---,0.00,VWS V13.01,2013-03-26 17:23:00,
2013-03-26 13:28:00,46.2,20.1,0.00,North,2,2.7,8.7,35,0.00,,---,0.00,VWS V13.01,2013-03-26 17:28:00,
2013-03-26 13:33:00,46.4,19.6,0.00,NNE,23,6.3,8.7,34,0.00,,---,0.00,VWS V13.01,2013-03-26 17:33:00,
2013-03-26 13:38:00,46.2,19.4,0.00,North,11,5.8,8.7,34,0.00,,---,0.00,VWS V13.01,2013-03-26 17:38:00,
2013-03-26 13:44:00,46.0,19.3,0.00,North,10,3.1,9.6,34,0.00,,---,0.00,VWS V13.01,2013-03-26 17:44:00,
2013-03-26 13:49:00,46.2,20.1,0.00,North,353,4.9,9.6,35,0.00,,---,0.00,VWS V13.01,2013-03-26 17:49:00,
2013-03-26 13:54:00,46.4,19.6,0.00,North,0,4.0,9.6,34,0.00,,---,0.00,VWS V13.01,2013-03-26 17:54:00,
2013-03-26 13:59:00,46.8,20.6,0.00,NNW,345,4.0,9.6,35,0.00,,---,0.00,VWS V13.01,2013-03-26 17:59:00,
2013-03-26 14:04:00,46.9,20.0,0.00,North,3,4.9,10.1,34,0.00,,---,0.00,VWS V13.01,2013-03-26 18:04:00,
2013-03-26 14:09:00,47.1,20.2,0.00,North,353,3.6,10.1,34,0.00,,---,0.00,VWS V13.01,2013-03-26 18:09:00,
2013-03-26 14:14:00,46.9,19.4,0.00,North,357,7.2,11.0,33,0.00,,---,0.00,VWS V13.01,2013-03-26 18:14:00,
2013-03-26 14:19:00,46.6,19.7,0.00,NNW,335,5.8,11.0,34,0.00,,---,0.00,VWS V13.01,2013-03-26 18:19:00,
2013-03-26 14:24:00,46.6,19.7,0.00,NNW,339,8.3,8.7,34,0.00,,---,0.00,VWS V13.01,2013-03-26 18:24:00,
2013-03-26 14:29:00,46.9,20.0,0.00,North,357,6.3,8.7,34,0.00,,---,0.00,VWS V13.01,2013-03-26 18:29:00,
2013-03-26 14:34:00,47.3,20.4,0.00,North,3,4.0,8.7,34,0.00,,---,0.00,VWS V13.01,2013-03-26 18:34:00,
2013-03-26 14:39:00,47.5,21.2,0.00,North,350,5.8,8.7,35,0.00,,---,0.00,VWS V13.01,2013-03-26 18:39:00,
2013-03-26 14:44:00,47.5,19.8,0.00,NNW,328,4.5,11.0,33,0.00,,---,0.00,VWS V13.01,2013-03-26 18:44:00,
2013-03-26 14:49:00,47.5,20.5,0.00,North,353,5.8,11.0,34,0.00,,---,0.00,VWS V13.01,2013-03-26 18:49:00,
2013-03-26 14:55:00,47.7,20.7,0.00,NNW,345,4.0,11.0,34,0.00,,---,0.00,VWS V13.01,2013-03-26 18:55:00,
2013-03-26 15:00:00,47.8,20.1,0.00,North,353,5.8,11.0,33,0.00,,---,0.00,VWS V13.01,2013-03-26 19:00:00,
2013-03-26 15:05:00,47.8,20.1,0.00,NNE,25,7.6,8.1,33,0.00,,---,0.00,VWS V13.01,2013-03-26 19:05:00,
2013-03-26 15:10:00,47.5,19.8,0.00,NNE,17,3.6,8.7,33,0.00,,---,0.00,VWS V13.01,2013-03-26 19:10:00,
2013-03-26 15:15:00,47.5,19.8,0.00,North,357,2.7,8.7,33,0.00,,---,0.00,VWS V13.01,2013-03-26 19:15:00,
2013-03-26 15:20:00,47.3,19.7,0.00,North,353,4.0,4.0,33,0.00,,---,0.00,VWS V13.01,2013-03-26 19:20:00,
2013-03-26 15:25:00,47.1,19.5,0.00,NW,323,8.1,8.1,33,0.00,,---,0.00,VWS V13.01,2013-03-26 19:25:00,
2013-03-26 15:30:00,47.1,20.2,0.00,NNW,331,4.5,8.1,34,0.00,,---,0.00,VWS V13.01,2013-03-26 19:30:00,
2013-03-26 15:35:00,47.1,20.2,0.00,NNW,339,9.6,9.6,34,0.00,,---,0.00,VWS V13.01,2013-03-26 19:35:00,
2013-03-26 15:40:00,46.9,20.0,0.00,WNW,298,3.6,3.6,34,0.00,,---,0.00,VWS V13.01,2013-03-26 19:40:00,
2013-03-26 15:45:00,46.9,19.4,0.00,WNW,291,3.6,8.7,33,0.00,,---,0.00,VWS V13.01,2013-03-26 19:45:00,
2013-03-26 15:50:00,47.3,19.7,0.00,NNW,339,8.7,10.5,33,0.00,,---,0.00,VWS V13.01,2013-03-26 19:50:00,
2013-03-26 15:55:00,47.5,19.1,0.00,NNW,346,5.4,10.5,32,0.00,,---,0.00,VWS V13.01,2013-03-26 19:55:00,
2013-03-26 16:00:00,48.0,20.3,0.00,NNE,20,4.0,4.0,33,0.00,,---,0.00,VWS V13.01,2013-03-26 20:00:00,
2013-03-26 16:05:00,48.2,19.0,0.00,NW,313,3.1,10.1,31,0.00,,---,0.00,VWS V13.01,2013-03-26 20:05:00,
2013-03-26 16:10:00,48.0,19.6,0.00,West,268,8.3,11.0,32,0.00,,---,0.00,VWS V13.01,2013-03-26 20:10:00,
2013-03-26 16:15:00,47.5,19.1,0.00,NNW,331,8.1,11.4,32,0.00,,---,0.00,VWS V13.01,2013-03-26 20:15:00,
2013-03-26 16:20:00,47.5,19.1,0.00,North,3,5.8,7.6,32,0.00,,---,0.00,VWS V13.01,2013-03-26 20:20:00,
2013-03-26 16:25:00,47.3,19.0,0.00,NNE,17,3.6,8.3,32,0.00,,---,0.00,VWS V13.01,2013-03-26 20:25:00,
2013-03-26 16:30:00,47.3,19.0,0.00,North,0,5.4,8.3,32,0.00,,---,0.00,VWS V13.01,2013-03-26 20:30:00,
2013-03-26 16:35:00,47.7,18.5,0.00,North,4,2.2,11.0,31,0.00,,---,0.00,VWS V13.01,2013-03-26 20:35:00,
2013-03-26 16:41:00,48.0,18.8,0.00,NNW,345,5.4,5.4,31,0.00,,---,0.00,VWS V13.01,2013-03-26 20:41:00,
2013-03-26 16:46:00,48.2,19.0,0.00,North,2,6.3,7.6,31,0.00,,---,0.00,VWS V13.01,2013-03-26 20:46:00,
2013-03-26 16:51:00,48.2,19.0,0.00,NNE,17,0.0,7.6,31,0.00,,---,0.00,VWS V13.01,2013-03-26 20:51:00,
2013-03-26 16:56:00,48.2,19.0,0.00,NNE,24,2.7,7.6,31,0.00,,---,0.00,VWS V13.01,2013-03-26 20:56:00,
2013-03-26 17:01:00,48.0,18.8,0.00,WNW,299,3.1,8.1,31,0.00,,---,0.00,VWS V13.01,2013-03-26 21:01:00,
2013-03-26 17:06:00,47.7,18.5,0.00,North,357,2.7,8.1,31,0.00,,---,0.00,VWS V13.01,2013-03-26 21:06:00,
2013-03-26 17:12:00,47.5,18.4,0.00,NE,34,4.9,8.1,31,0.00,,---,0.00,VWS V13.01,2013-03-26 21:12:00,
2013-03-26 17:17:00,47.7,18.5,0.00,NNE,15,3.6,8.1,31,0.00,,---,0.00,VWS V13.01,2013-03-26 21:17:00,
2013-03-26 17:22:00,47.5,18.4,0.00,WNW,301,6.7,7.6,31,0.00,,---,0.00,VWS V13.01,2013-03-26 21:22:00,
2013-03-26 17:27:00,47.5,18.4,0.00,NNW,335,4.0,8.7,31,0.00,,---,0.00,VWS V13.01,2013-03-26 21:27:00,
2013-03-26 17:32:00,47.1,18.1,0.00,NNW,335,5.8,15.0,31,0.00,,---,0.00,VWS V13.01,2013-03-26 21:32:00,
2013-03-26 17:37:00,46.9,17.9,0.00,NNW,332,6.3,15.0,31,0.00,,---,0.00,VWS V13.01,2013-03-26 21:37:00,
2013-03-26 17:42:00,46.9,18.6,0.00,North,353,5.8,8.3,32,0.00,,---,0.00,VWS V13.01,2013-03-26 21:42:00,
2013-03-26 17:47:00,47.5,19.1,0.00,NNE,24,5.8,8.3,32,0.00,,---,0.00,VWS V13.01,2013-03-26 21:47:00,
2013-03-26 17:52:00,48.2,19.0,0.00,NW,314,6.3,8.3,31,0.00,,---,0.00,VWS V13.01,2013-03-26 21:52:00,
2013-03-26 17:58:00,48.4,19.2,0.00,North,353,7.6,13.2,31,0.00,,---,0.00,VWS V13.01,2013-03-26 21:58:00,
2013-03-26 18:03:00,47.8,18.7,0.00,North,349,3.6,8.3,31,0.00,,---,0.00,VWS V13.01,2013-03-26 22:03:00,
2013-03-26 18:08:00,47.3,18.2,0.00,NW,324,5.4,9.6,31,0.00,,---,0.00,VWS V13.01,2013-03-26 22:08:00,
2013-03-26 18:13:00,46.8,18.5,0.00,NNW,332,6.3,9.6,32,0.00,,---,0.00,VWS V13.01,2013-03-26 22:13:00,
2013-03-26 18:18:00,46.4,18.2,0.00,NNE,17,3.1,10.5,32,0.00,,---,0.00,VWS V13.01,2013-03-26 22:18:00,
2013-03-26 18:23:00,46.0,17.9,0.00,NNW,340,5.8,5.8,32,0.00,,---,0.00,VWS V13.01,2013-03-26 22:23:00,
2013-03-26 18:28:00,46.0,17.9,0.00,NW,310,4.9,8.3,32,0.00,,---,0.00,VWS V13.01,2013-03-26 22:28:00,
2013-03-26 18:33:00,45.9,18.4,0.00,North,357,2.7,8.3,33,0.00,,---,0.00,VWS V13.01,2013-03-26 22:33:00,
2013-03-26 18:38:00,45.7,18.2,0.00,NW,310,5.8,8.3,33,0.00,,---,0.00,VWS V13.01,2013-03-26 22:38:00,
2013-03-26 18:43:00,45.5,18.1,0.00,NW,319,2.7,7.6,33,0.00,,---,0.00,VWS V13.01,2013-03-26 22:43:00,
2013-03-26 18:48:00,45.3,18.6,0.00,NNW,334,3.6,7.6,34,0.00,,---,0.00,VWS V13.01,2013-03-26 22:48:00,
2013-03-26 18:53:00,45.1,18.5,0.00,North,349,6.3,7.6,34,0.00,,---,0.00,VWS V13.01,2013-03-26 22:53:00,
2013-03-26 18:58:00,45.0,18.3,0.00,NW,318,3.1,7.6,34,0.00,,---,0.00,VWS V13.01,2013-03-26 22:58:00,
2013-03-26 19:03:00,44.8,18.1,0.00,North,357,0.0,4.9,34,0.00,,---,0.00,VWS V13.01,2013-03-26 23:03:00,
2013-03-26 19:08:00,44.6,18.7,0.00,NW,316,3.1,4.9,35,0.00,,---,0.00,VWS V13.01,2013-03-26 23:08:00,
2013-03-26 19:14:00,44.4,18.5,0.00,NNW,334,3.6,4.9,35,0.00,,---,0.00,VWS V13.01,2013-03-26 23:14:00,
2013-03-26 19:19:00,44.2,18.3,0.00,NW,324,3.6,4.9,35,0.00,,---,0.00,VWS V13.01,2013-03-26 23:19:00,
2013-03-26 19:24:00,44.1,18.8,0.00,NNW,331,5.4,8.1,36,0.00,,---,0.00,VWS V13.01,2013-03-26 23:24:00,
2013-03-26 19:29:00,43.7,18.5,0.00,North,353,3.6,8.1,36,0.00,,---,0.00,VWS V13.01,2013-03-26 23:29:00,
2013-03-26 19:34:00,43.3,18.8,0.00,North,349,0.0,10.5,37,0.00,,---,0.00,VWS V13.01,2013-03-26 23:34:00,
2013-03-26 19:39:00,43.2,18.7,0.00,NW,316,7.2,10.5,37,0.00,,---,0.00,VWS V13.01,2013-03-26 23:39:00,
2013-03-26 19:44:00,42.8,19.0,0.00,North,357,3.6,4.5,38,0.00,,---,0.00,VWS V13.01,2013-03-26 23:44:00,
2013-03-26 19:49:00,42.6,18.8,0.00,NNW,332,2.7,5.8,38,0.00,,---,0.00,VWS V13.01,2013-03-26 23:49:00,
2013-03-26 19:54:00,42.3,18.5,0.00,NNW,337,6.3,6.3,38,0.00,,---,0.00,VWS V13.01,2013-03-26 23:54:00,
2013-03-26 19:59:00,42.1,18.3,0.00,NW,324,4.0,8.7,38,0.00,,---,0.00,VWS V13.01,2013-03-26 23:59:00,
2013-03-26 20:04:00,42.1,18.9,0.00,North,3,2.2,5.8,39,0.00,,---,0.00,VWS V13.01,2013-03-27 00:04:00,
2013-03-26 20:09:00,41.7,18.6,0.00,WNW,299,2.7,5.8,39,0.00,,---,0.00,VWS V13.01,2013-03-27 00:09:00,
2013-03-26 20:14:00,41.5,18.4,0.00,NW,318,2.7,5.8,39,0.00,,---,0.00,VWS V13.01,2013-03-27 00:14:00,
2013-03-26 20:19:00,41.5,18.4,0.00,NNW,329,0.0,5.8,39,0.00,,---,0.00,VWS V13.01,2013-03-27 00:19:00,
2013-03-26 20:24:00,41.2,18.1,0.00,NNW,331,0.0,0.0,39,0.00,,---,0.00,VWS V13.01,2013-03-27 00:24:00,
2013-03-26 20:29:00,41.0,18.5,0.00,NNW,335,0.0,2.7,40,0.00,,---,0.00,VWS V13.01,2013-03-27 00:29:00,
2013-03-26 20:34:00,40.8,19.0,0.00,NNW,332,0.0,2.7,41,0.00,,---,0.00,VWS V13.01,2013-03-27 00:34:00,
2013-03-26 20:40:00,40.6,18.8,0.00,NW,317,2.7,5.4,41,0.00,,---,0.00,VWS V13.01,2013-03-27 00:40:00,
2013-03-26 20:45:00,40.5,18.6,0.00,NW,317,0.0,3.1,41,0.00,,---,0.00,VWS V13.01,2013-03-27 00:45:00,
2013-03-26 20:50:00,40.3,18.5,0.00,NW,325,3.1,4.0,41,0.00,,---,0.00,VWS V13.01,2013-03-27 00:50:00,
2013-03-26 20:55:00,40.3,18.5,0.00,NW,323,4.0,4.0,41,0.00,,---,0.00,VWS V13.01,2013-03-27 00:55:00,
2013-03-26 21:00:00,39.9,18.1,0.00,NW,323,0.0,4.0,41,0.00,,---,0.00,VWS V13.01,2013-03-27 01:00:00,
2013-03-26 21:05:00,39.9,18.7,0.00,NW,324,0.0,2.7,42,0.00,,---,0.00,VWS V13.01,2013-03-27 01:05:00,
2013-03-26 21:10:00,39.7,18.5,0.00,NW,323,0.0,2.7,42,0.00,,---,0.00,VWS V13.01,2013-03-27 01:10:00,
2013-03-26 21:15:00,39.4,18.2,0.00,NW,324,3.1,3.1,42,0.00,,---,0.00,VWS V13.01,2013-03-27 01:15:00,
2013-03-26 21:20:00,39.4,18.2,0.00,NNW,337,3.1,3.6,42,0.00,,---,0.00,VWS V13.01,2013-03-27 01:20:00,
2013-03-26 21:25:00,39.2,18.0,0.00,NW,326,4.0,4.0,42,0.00,,---,0.00,VWS V13.01,2013-03-27 01:25:00,
2013-03-26 21:30:00,39.2,18.0,0.00,NNW,338,4.9,4.9,42,0.00,,---,0.00,VWS V13.01,2013-03-27 01:30:00,
2013-03-26 21:35:00,39.2,18.0,0.00,NNW,331,3.1,5.4,42,0.00,,---,0.00,VWS V13.01,2013-03-27 01:35:00,
2013-03-26 21:40:00,39.2,18.0,0.00,NW,320,3.6,3.6,42,0.00,,---,0.00,VWS V13.01,2013-03-27 01:40:00,
2013-03-26 21:46:00,39.0,18.4,0.00,NNW,332,2.7,4.0,43,0.00,,---,0.00,VWS V13.01,2013-03-27 01:46:00,
2013-03-26 21:51:00,38.8,17.7,0.00,NW,321,2.7,4.0,42,0.00,,---,0.00,VWS V13.01,2013-03-27 01:51:00,
2013-03-26 21:56:00,38.8,17.7,0.00,NW,326,3.6,4.0,42,0.00,,---,0.00,VWS V13.01,2013-03-27 01:56:00,
2013-03-26 22:01:00,38.8,17.7,0.00,NW,325,2.7,3.6,42,0.00,,---,0.00,VWS V13.01,2013-03-27 02:01:00,
2013-03-26 22:06:00,38.7,17.6,0.00,NNW,328,3.6,4.0,42,0.00,,---,0.00,VWS V13.01,2013-03-27 02:06:00,
2013-03-26 22:11:00,38.7,17.6,0.00,NNW,328,2.7,4.9,42,0.00,,---,0.00,VWS V13.01,2013-03-27 02:11:00,
2013-03-26 22:16:00,38.5,17.4,0.00,NNW,328,0.0,4.9,42,0.00,,---,0.00,VWS V13.01,2013-03-27 02:16:00,
2013-03-26 22:21:00,38.5,17.4,0.00,NNW,328,0.0,0.0,42,0.00,,---,0.00,VWS V13.01,2013-03-27 02:21:00,
2013-03-26 22:26:00,38.1,18.1,0.00,NNW,328,0.0,0.0,44,0.00,,---,0.00,VWS V13.01,2013-03-27 02:26:00,
2013-03-26 22:31:00,37.6,18.2,0.00,NNW,328,0.0,0.0,45,0.00,,---,0.00,VWS V13.01,2013-03-27 02:31:00,
2013-03-26 22:37:00,37.0,18.2,0.00,NNW,328,0.0,0.0,46,0.00,,---,0.00,VWS V13.01,2013-03-27 02:37:00,
2013-03-26 22:42:00,36.7,18.4,0.00,NNW,328,0.0,0.0,47,0.00,,---,0.00,VWS V13.01,2013-03-27 02:42:00,
2013-03-26 22:47:00,36.3,18.5,0.00,NNW,328,0.0,0.0,48,0.00,,---,0.00,VWS V13.01,2013-03-27 02:47:00,
2013-03-26 22:52:00,36.1,18.4,0.00,NNW,328,0.0,0.0,48,0.00,,---,0.00,VWS V13.01,2013-03-27 02:52:00,
2013-03-26 22:57:00,35.8,18.5,0.00,NNW,328,0.0,0.0,49,0.00,,---,0.00,VWS V13.01,2013-03-27 02:57:00,
2013-03-26 23:02:00,35.8,18.5,0.00,NNW,328,0.0,0.0,49,0.00,,---,0.00,VWS V13.01,2013-03-27 03:02:00,
2013-03-26 23:07:00,35.6,18.8,0.00,NNW,328,0.0,0.0,50,0.00,,---,0.00,VWS V13.01,2013-03-27 03:07:00,
2013-03-26 23:12:00,35.4,19.1,0.00,NNW,328,0.0,0.0,51,0.00,,---,0.00,VWS V13.01,2013-03-27 03:12:00,
2013-03-26 23:17:00,35.2,19.4,0.00,NW,314,0.0,0.0,52,0.00,,---,0.00,VWS V13.01,2013-03-27 03:17:00,
2013-03-26 23:22:00,34.9,19.1,0.00,NW,314,0.0,0.0,52,0.00,,---,0.00,VWS V13.01,2013-03-27 03:22:00,
2013-03-26 23:27:00,34.5,19.2,0.00,NW,314,0.0,0.0,53,0.00,,---,0.00,VWS V13.01,2013-03-27 03:27:00,
2013-03-26 23:32:00,34.3,19.0,0.00,NW,314,0.0,0.0,53,0.00,,---,0.00,VWS V13.01,2013-03-27 03:32:00,
2013-03-26 23:38:00,34.0,18.7,0.00,NW,314,0.0,0.0,53,0.00,,---,0.00,VWS V13.01,2013-03-27 03:38:00,
2013-03-26 23:43:00,34.0,19.1,0.00,NW,314,0.0,0.0,54,0.00,,---,0.00,VWS V13.01,2013-03-27 03:43:00,
2013-03-26 23:48:00,33.8,18.9,0.00,NW,314,0.0,0.0,54,0.00,,---,0.00,VWS V13.01,2013-03-27 03:48:00,
2013-03-26 23:53:00,33.6,19.2,0.00,NW,314,0.0,0.0,55,0.00,,---,0.00,VWS V13.01,2013-03-27 03:53:00,
2013-03-26 23:58:00,33.6,19.6,0.00,NW,314,0.0,0.0,56,0.00,,---,0.00,VWS V13.01,2013-03-27 03:58:00,